Dublin, VA

8:50 AM EST on December 08, 2019 (GMT -0500)
New River Valley

Weather History for KPSK - November, 2019

Change the Weather History Date:

Thursday, November 14, 2019

  Actual Average (KBCB) Record (KBCB)
Temperature  
Mean Temperature 30 °F -  
Max Temperature 45 °F 52 °F 73 °F (1955)
Min Temperature 17 °F 28 °F 9 °F (1986)
Degree Days  
Heating Degree Days 34    
Moisture  
Dew Point 18 °F    
Average Humidity 62    
Maximum Humidity 89    
Minimum Humidity 32    
Precipitation  
Precipitation 0.00 in - - ()
Sea Level Pressure  
Sea Level Pressure 30.29 in    
Wind  
Wind Speed 0 mph (SW)    
Max Wind Speed 5 mph    
Max Gust Speed -    
Visibility 10 miles    
Events      
Averages and records for this station are not official NWS values.
T = Trace of Precipitation, MM = Missing Value Source: NWS Daily Summary

Daily Weather History Graph

Daily Weather History Graph

Search for Another Location

Airport or City:

Astronomy

Nov. 14, 2019 Rise Set
Actual Time 7:00 AM EST 5:13 PM EST
Civil Twilight 6:32 AM EST 5:41 PM EST
Nautical Twilight 6:01 AM EST 6:12 PM EST
Astronomical Twilight 5:30 AM EST 6:43 PM EST
Moon 7:00 PM EST (11/14) 8:52 AM EST (11/14)
Length of Visible Light 11h 08m
Length of Day
10h 13m
Waning Gibbous, 95% of the Moon is Illuminated
Nov 14
Waning Gibbous
Nov 19
Last Quarter
Nov 26
New
Dec 4
First Quarter
Dec 12
Full

Hourly Weather History & Observations

Time (EST) Temp. Windchill Dew Point Humidity Pressure Visibility Wind Dir Wind Speed Gust Speed Precip Events Conditions
12:15 AM 20.1 °F - 14.2 °F 78% 30.32 in 10.0 mi Calm Calm - N/A   Clear
12:35 AM 21.4 °F - 14.5 °F 75% 30.31 in 10.0 mi Calm Calm - N/A   Clear
12:55 AM 19.9 °F - 14.2 °F 78% 30.33 in 10.0 mi Calm Calm - N/A   Clear
1:15 AM 19.6 °F - 14.7 °F 81% 30.33 in 10.0 mi Calm Calm - N/A   Clear
1:35 AM 20.3 °F - 14.5 °F 78% 30.33 in 10.0 mi Calm Calm - N/A   Clear
1:55 AM 20.5 °F - 14.5 °F 78% 30.32 in 10.0 mi Calm Calm - N/A   Clear
2:15 AM 18.7 °F - 13.8 °F 81% 30.33 in 10.0 mi Calm Calm - N/A   Clear
2:35 AM 17.6 °F - 14.0 °F 86% 30.33 in 10.0 mi Calm Calm - N/A   Clear
3:35 AM 18.5 °F - 15.1 °F 86% 30.31 in 10.0 mi Calm Calm - N/A   Clear
3:55 AM 17.8 °F - 14.5 °F 87% 30.30 in 10.0 mi Calm Calm - N/A   Clear
4:15 AM 18.1 °F - 14.4 °F 85% 30.31 in 10.0 mi Calm Calm - N/A   Clear
4:35 AM 17.4 °F - 14.7 °F 89% 30.31 in 10.0 mi Calm Calm - N/A   Clear
4:55 AM 18.0 °F - 14.9 °F 88% 30.31 in 10.0 mi Calm Calm - N/A   Clear
5:35 AM 18.9 °F - 15.1 °F 85% 30.31 in 10.0 mi Calm Calm - N/A   Clear
5:55 AM 18.0 °F - 14.9 °F 88% 30.31 in 10.0 mi Calm Calm - N/A   Clear
6:35 AM 18.5 °F - 15.8 °F 89% 30.31 in 10.0 mi Calm Calm - N/A   Clear
6:55 AM 19.2 °F - 15.6 °F 86% 30.31 in 10.0 mi Calm Calm - N/A   Clear
7:15 AM 19.8 °F - 15.4 °F 83% 30.32 in 10.0 mi Calm Calm - N/A   Clear
7:35 AM 20.7 °F 15.8 °F 16.7 °F 85% 30.32 in 10.0 mi South 3.5 mph - N/A   Clear
7:55 AM 23.5 °F 19.1 °F 16.7 °F 75% 30.32 in 10.0 mi SSE 3.5 mph - N/A   Clear
8:15 AM 25.9 °F - 17.8 °F 71% 30.33 in 10.0 mi Calm Calm - N/A   Clear
8:35 AM 26.6 °F - 20.1 °F 77% 30.34 in 10.0 mi Calm Calm - N/A   Clear
8:55 AM 27.5 °F - 19.9 °F 73% 30.33 in 10.0 mi Calm Calm - N/A   Clear
9:15 AM 29.3 °F - 20.7 °F 70% 30.34 in 10.0 mi Calm Calm - N/A   Clear
9:35 AM 30.0 °F - 19.6 °F 65% 30.34 in 10.0 mi Calm Calm - N/A   Clear
9:55 AM 31.5 °F - 19.2 °F 61% 30.33 in 10.0 mi Calm Calm - N/A   Clear
10:15 AM 32.9 °F 29.8 °F 18.1 °F 55% 30.33 in 10.0 mi SE 3.5 mph - N/A   Clear
10:35 AM 33.1 °F 30.0 °F 17.4 °F 53% 30.33 in 10.0 mi WSW 3.5 mph - N/A   Clear
10:55 AM 34.0 °F - 17.4 °F 51% 30.32 in 10.0 mi Calm Calm - N/A   Clear
11:15 AM 34.3 °F - 16.9 °F 49% 30.32 in 10.0 mi Calm Calm - N/A   Clear
11:35 AM 35.6 °F - 18.0 °F 49% 30.31 in 10.0 mi Calm Calm - N/A   Clear
11:55 AM 36.5 °F - 18.7 °F 49% 30.30 in 10.0 mi Calm Calm - N/A   Clear
12:15 PM 37.6 °F 35.1 °F 17.6 °F 44% 30.29 in 10.0 mi South 3.5 mph - N/A   Clear
12:35 PM 39.6 °F - 17.2 °F 41% 30.28 in 10.0 mi Calm Calm - N/A   Clear
12:55 PM 39.4 °F - 16.5 °F 40% 30.27 in 10.0 mi Calm Calm - N/A   Clear
1:15 PM 42.4 °F - 18.0 °F 37% 30.26 in 10.0 mi Calm Calm - N/A   Clear
1:35 PM 42.3 °F - 17.8 °F 37% 30.25 in 10.0 mi Calm Calm - N/A   Clear
1:55 PM 43.5 °F - 17.2 °F 35% 30.25 in 10.0 mi Calm Calm - N/A   Clear
2:15 PM 44.8 °F - 16.2 °F 32% 30.24 in 10.0 mi Calm Calm - N/A   Clear
2:35 PM 44.1 °F - 16.5 °F 33% 30.24 in 10.0 mi Calm Calm - N/A   Mostly Cloudy
2:55 PM 43.7 °F - 17.8 °F 35% 30.24 in 10.0 mi Calm Calm - N/A   Overcast
3:15 PM 43.7 °F 41.1 °F 18.3 °F 36% 30.24 in 10.0 mi North 4.6 mph - N/A   Overcast
3:35 PM 43.9 °F 41.3 °F 18.9 °F 37% 30.23 in 10.0 mi North 4.6 mph - N/A   Overcast
3:55 PM 44.6 °F - 17.2 °F 33% 30.23 in 10.0 mi Calm Calm - N/A   Mostly Cloudy
4:15 PM 43.5 °F - 17.6 °F 35% 30.24 in 10.0 mi Calm Calm - N/A   Mostly Cloudy
4:35 PM 42.8 °F - 19.0 °F 39% 30.24 in 10.0 mi Calm Calm - N/A   Overcast
4:55 PM 42.1 °F 40.2 °F 18.7 °F 39% 30.24 in 10.0 mi East 3.5 mph - N/A   Overcast
5:15 PM 41.2 °F - 21.0 °F 45% 30.25 in 10.0 mi Calm Calm - N/A   Overcast
5:35 PM 41.0 °F - 19.9 °F 43% 30.25 in 3.0 mi Calm Calm - N/A   Haze
5:55 PM 40.8 °F - 20.3 °F 44% 30.26 in 10.0 mi Calm Calm - N/A   Overcast
6:15 PM 40.6 °F - 21.7 °F 47% 30.26 in 10.0 mi Calm Calm - N/A   Overcast
6:35 PM 40.5 °F - 22.5 °F 49% 30.25 in 10.0 mi Calm Calm - N/A   Overcast
6:55 PM 39.9 °F - 22.6 °F 50% 30.26 in 10.0 mi Calm Calm - N/A   Overcast
7:15 PM 34.5 °F 31.6 °F 25.5 °F 70% 30.27 in 10.0 mi WNW 3.5 mph - N/A   Scattered Clouds
7:35 PM 34.9 °F 32.0 °F 24.8 °F 67% 30.28 in 10.0 mi WNW 3.5 mph - N/A   Mostly Cloudy
7:55 PM 34.5 °F 31.6 °F 23.9 °F 65% 30.27 in 10.0 mi SW 3.5 mph - N/A   Mostly Cloudy
8:15 PM 34.7 °F 31.8 °F 22.6 °F 61% 30.27 in 10.0 mi SSW 3.5 mph - N/A   Scattered Clouds
8:35 PM 34.2 °F 31.2 °F 22.3 °F 62% 30.27 in 10.0 mi NW 3.5 mph - N/A   Clear
8:55 PM 31.6 °F - 23.5 °F 72% 30.27 in 10.0 mi Calm Calm - N/A   Clear
9:15 PM 32.7 °F - 23.0 °F 67% 30.27 in 10.0 mi Calm Calm - N/A   Clear
9:35 PM 32.0 °F - 23.9 °F 72% 30.27 in 10.0 mi Calm Calm - N/A   Scattered Clouds
10:15 PM 32.0 °F - 24.1 °F 73% 30.29 in 10.0 mi Calm Calm - N/A   Overcast
10:35 PM 33.6 °F - 23.4 °F 66% 30.28 in 10.0 mi Calm Calm - N/A   Overcast
10:55 PM 34.2 °F - 24.6 °F 68% 30.27 in 10.0 mi Calm Calm - N/A   Overcast
11:55 PM 33.3 °F - 25.7 °F 74% 30.28 in 10.0 mi Calm Calm - N/A   Overcast